GW2454 Weather Reports


time (UTC)temp
F
wind
direction
speed
knots
gust
knots
rain 1hr
in
rain 24hr
in
rain mn
in
humidity
%
barometer
mb
20260502152328 65 275 4.3 5.2 0.00 0.00 0.00 70 1017.9
20260502151826 65 202 4.3 5.2 0.00 0.00 0.00 70 1017.9
20260502151322 65 313 3.5 5.2 0.00 0.00 0.00 71 1018.1
20260502150820 64 308 6.1 7.8 0.00 0.00 0.00 71 1017.9
20260502150316 64 50 2.6 4.3 0.00 0.00 0.00 72 1018.0
20260502130705 56 52 1.7 1.7 0.00 0.00 0.00 91 1016.9
20260502130203 55 28 1.7 2.6 0.00 0.00 0.00 92 1016.9
20260502123648 54 315 0.9 1.7 0.00 0.00 0.00 94 1016.2
20260502123145 53 320 2.6 2.6 0.00 0.00 0.00 94 1016.2
20260502122641 53 358 1.7 1.7 0.00 0.00 0.00 94 1015.9
20260502122138 53 302 1.7 1.7 0.00 0.00 0.00 95 1016.0
20260502121636 53 353 0.9 0.9 0.00 0.00 0.00 95 1015.9
20260502121133 53 20 0.0 0.9 0.00 0.00 0.00 95 1015.9
20260502120630 53 6 1.7 1.7 0.00 0.00 0.00 95 1016.0
20260502120127 52 329 1.7 4.3 0.00 0.00 0.00 95 1015.8
20260502115624 52 349 1.7 1.7 0.00 0.00 0.00 95 1015.6
20260502115120 52 335 2.6 2.6 0.00 0.00 0.00 95 1015.7
20260502114616 52 336 1.7 1.7 0.00 0.00 0.00 95 1015.6
20260502114114 52 0 1.7 1.7 0.00 0.00 0.00 95 1015.4
20260502113611 52 352 0.9 0.9 0.00 0.00 0.00 95 1015.6
20260502113110 52 327 2.6 4.3 0.00 0.00 0.00 95 1015.5
20260502112607 52 335 2.6 2.6 0.00 0.00 0.00 95 1015.6
20260502112104 52 334 1.7 2.6 0.00 0.00 0.00 95 1015.4
20260502111602 52 344 1.7 1.7 0.00 0.00 0.00 95 1015.4
20260502111059 52 21 0.9 1.7 0.00 0.00 0.00 95 1015.2
20260502110556 52 2 0.9 0.9 0.00 0.00 0.00 95 1015.5
20260502110054 52 341 0.9 0.9 0.00 0.00 0.00 95 1015.1
20260502105551 52 348 1.7 1.7 0.00 0.00 0.00 95 1015.4
20260502105048 52 351 0.9 0.9 0.00 0.00 0.00 95 1015.2
20260502104545 52 14 2.6 2.6 0.00 0.00 0.00 95 1015.2
20260502104043 52 306 1.7 1.7 0.00 0.00 0.00 95 1015.1
20260502103540 52 355 1.7 2.6 0.00 0.00 0.00 95 1014.8
20260502103038 52 321 0.9 1.7 0.00 0.00 0.00 95 1014.9
20260502102534 52 315 1.7 1.7 0.00 0.00 0.00 95 1014.8
20260502102032 52 347 2.6 2.6 0.00 0.00 0.00 95 1015.0
20260502101529 52 332 3.5 4.3 0.00 0.00 0.00 95 1015.0
20260502101028 52 353 2.6 2.6 0.00 0.00 0.00 94 1014.8
20260502100526 53 319 1.7 2.6 0.00 0.00 0.00 94 1014.6
20260502091500 53 21 0.9 0.9 0.00 0.00 0.00 94 1014.0
20260502090958 53 48 0.9 0.9 0.00 0.00 0.00 93 1013.7
20260502090454 53 324 1.7 1.7 0.00 0.00 0.00 93 1013.4
20260502071349 54 351 1.7 1.7 0.00 0.00 0.00 95 1013.6
20260502070847 54 326 2.6 2.6 0.00 0.00 0.00 95 1013.5
20260502070344 54 23 0.9 1.7 0.00 0.00 0.00 96 1013.6
20260502065844 54 37 2.6 2.6 0.00 0.00 0.00 96 1013.7
20260502065341 54 346 0.9 0.9 0.00 0.00 0.00 96 1013.4
20260502064839 54 51 0.9 0.9 0.00 0.00 0.00 96 1013.6
20260502064337 54 292 0.9 0.9 0.00 0.00 0.00 96 1013.6
20260502063833 54 336 1.7 1.7 0.00 0.00 0.00 97 1013.3
20260502063331 54 32 0.9 0.9 0.00 0.00 0.00 97 1013.4
20260502062828 54 4 1.7 1.7 0.00 0.00 0.00 97 1013.5
20260502062326 54 32 2.6 4.3 0.00 0.00 0.00 97 1013.4
20260502061825 54 11 2.6 2.6 0.00 0.00 0.00 97 1013.4
20260502061322 54 330 1.7 4.3 0.00 0.00 0.00 97 1013.4
20260502060817 54 180 2.6 4.3 0.00 0.00 0.00 97 1013.1
20260502060312 54 45 1.7 2.6 0.00 0.00 0.00 97 1013.1
20260502055811 54 55 1.7 1.7 0.00 0.00 0.00 97 1013.2
20260502055308 54 67 0.9 1.7 0.00 0.00 0.00 97 1013.1
20260502054808 54 63 1.7 4.3 0.00 0.00 0.00 97 1013.3
20260502054305 54 284 4.3 6.1 0.00 0.00 0.00 97 1013.2
20260502053802 54 351 0.9 0.9 0.00 0.00 0.00 97 1013.3
20260502053259 54 66 2.6 2.6 0.00 0.00 0.00 98 1013.1
20260502052757 55 334 2.6 5.2 0.00 0.00 0.00 98 1013.2
20260502052255 55 43 2.6 2.6 0.00 0.00 0.00 98 1013.3
20260502051752 55 53 1.7 4.3 0.00 0.00 0.00 98 1013.1
20260502051251 55 163 2.6 4.3 0.00 0.00 0.00 98 1013.3
20260502050747 55 327 1.7 1.7 0.00 0.00 0.00 98 1013.3
20260502050243 55 51 2.6 4.3 0.00 0.00 0.00 98 1013.3
20260502045740 55 83 0.9 0.9 0.00 0.34 0.34 98 1013.0
20260502045237 55 356 1.7 2.6 0.00 0.34 0.34 98 1013.3
20260502044734 55 22 3.5 4.3 0.00 0.34 0.34 98 1013.3
20260502044230 55 55 1.7 2.6 0.00 0.34 0.34 98 1013.0
20260502043728 55 62 2.6 2.6 0.00 0.34 0.34 98 1013.0
20260502043225 55 33 2.6 2.6 0.00 0.34 0.34 98 1013.0
20260502042724 55 29 1.7 1.7 0.00 0.34 0.34 98 1012.9
20260502042222 55 82 0.9 0.9 0.00 0.34 0.34 98 1012.8
20260502041719 55 43 2.6 4.3 0.00 0.34 0.34 98 1012.9
20260502041217 55 49 1.7 2.6 0.00 0.34 0.34 98 1013.1
20260502040713 55 59 3.5 4.3 0.00 0.34 0.34 98 1013.2
20260502040210 55 342 3.5 5.2 0.00 0.34 0.34 98 1013.5
20260502035706 55 313 0.9 2.6 0.00 0.34 0.34 98 1013.2
20260502035203 55 334 3.5 4.3 0.00 0.34 0.34 98 1013.4
20260502034701 55 1 2.6 2.6 0.00 0.34 0.34 98 1012.9
20260502034159 55 349 2.6 2.6 0.00 0.34 0.34 98 1013.2
20260502033657 55 331 5.2 8.7 0.00 0.34 0.34 98 1013.0
20260502033154 55 343 3.5 6.1 0.00 0.34 0.34 98 1012.9
20260502032650 55 338 2.6 5.2 0.00 0.34 0.34 98 1013.0
20260502032146 55 282 2.6 5.2 0.00 0.34 0.34 98 1012.8
20260502031645 55 341 1.7 1.7 0.00 0.34 0.34 98 1012.7
20260502031142 55 36 2.6 2.6 0.00 0.34 0.34 98 1012.6
20260502030641 55 326 2.6 2.6 0.00 0.34 0.34 98 1012.6
20260502030139 55 40 3.5 5.2 0.00 0.34 0.34 98 1012.4
20260502025635 55 351 0.9 1.7 0.00 0.34 0.34 98 1012.4
20260502025133 55 11 1.7 4.3 0.00 0.34 0.34 98 1012.1
20260502024631 55 336 3.5 6.1 0.00 0.34 0.34 98 1011.7
20260502024129 55 21 1.7 2.6 0.00 0.34 0.34 98 1011.8
20260502023627 55 38 2.6 4.3 0.00 0.34 0.34 98 1011.9
20260502023124 55 58 0.9 0.9 0.00 0.34 0.34 98 1011.9
20260502022620 55 58 3.5 4.3 0.00 0.34 0.34 98 1011.8
20260502022118 56 15 4.3 5.2 0.00 0.34 0.34 98 1011.7
20260502021615 56 43 2.6 5.2 0.00 0.34 0.34 98 1011.4
20260502021112 56 329 3.5 5.2 0.00 0.34 0.34 98 1011.9
20260502020610 56 334 3.5 4.3 0.00 0.34 0.34 98 1011.8
20260502020106 56 352 2.6 4.3 0.00 0.34 0.34 98 1011.5
20260502015604 56 56 3.5 5.2 0.00 0.34 0.34 98 1011.5
20260502015100 56 353 5.2 6.1 0.00 0.34 0.34 98 1011.3
20260502014557 56 340 2.6 4.3 0.00 0.34 0.34 98 1011.3
20260502014054 56 343 3.5 7.0 0.00 0.34 0.34 98 1010.9
20260502013549 56 316 2.6 4.3 0.00 0.34 0.34 98 1010.8
20260502013046 57 334 2.6 2.6 0.00 0.34 0.34 98 1010.5
20260502012543 57 34 1.7 2.6 0.00 0.34 0.34 98 1010.5
20260502012041 57 348 3.5 5.2 0.00 0.34 0.34 98 1010.8
20260502011538 57 25 2.6 4.3 0.00 0.34 0.34 98 1011.4
20260502011034 57 322 3.5 6.1 0.00 0.34 0.34 98 1011.2
20260502010532 57 345 4.3 5.2 0.00 0.34 0.34 98 1011.3
20260502010027 57 311 5.2 6.1 0.00 0.34 0.34 98 1010.9
20260502005526 57 340 0.9 1.7 0.00 0.34 0.34 98 1009.9
20260502005023 58 43 2.6 4.3 0.00 0.34 0.34 98 1009.3
20260502004519 58 35 3.5 5.2 0.00 0.34 0.34 98 1009.4
20260502004016 58 51 2.6 2.6 0.00 0.34 0.34 98 1009.5
20260502003514 59 333 1.7 1.7 0.00 0.34 0.34 98 1010.1
20260502003010 58 323 2.6 2.6 0.00 0.34 0.34 98 1010.4
20260502002507 59 21 2.6 4.3 0.00 0.34 0.34 98 1010.6
20260502002004 58 321 2.6 2.6 0.00 0.34 0.34 98 1010.3
20260502001502 58 336 2.6 2.6 0.00 0.34 0.34 98 1009.9
20260502000959 58 338 1.7 1.7 0.00 0.34 0.34 98 1010.3
20260502000457 58 348 2.6 2.6 0.00 0.34 0.34 98 1010.3
20260501235953 58 28 0.0 0.0 0.00 0.34 0.34 98 1009.7
20260501235449 59 19 3.5 4.3 0.00 0.34 0.34 98 1009.3
20260501234944 59 340 4.3 5.2 0.00 0.34 0.34 98 1010.0
20260501234441 59 304 1.7 1.7 0.00 0.34 0.34 98 1009.7
20260501233940 59 326 1.7 1.7 0.00 0.34 0.34 98 1009.5
20260501233437 59 68 3.5 5.2 0.00 0.34 0.34 98 1009.2
20260501232933 59 40 1.7 1.7 0.00 0.34 0.34 98 1009.4
20260501232430 59 58 2.6 4.3 0.00 0.34 0.34 98 1008.8
20260501231927 59 62 3.5 6.1 0.00 0.34 0.34 98 1008.8
20260501231426 59 94 1.7 2.6 0.00 0.34 0.34 98 1008.9
20260501230923 59 71 4.3 6.1 0.00 0.34 0.34 98 1009.2
20260501230422 59 57 0.9 0.9 0.00 0.34 0.34 98 1009.0
20260501225919 59 106 0.9 1.7 0.00 0.34 0.34 98 1009.0
20260501225417 59 38 0.9 1.7 0.00 0.34 0.34 98 1009.1
20260501224912 59 27 4.3 6.1 0.00 0.34 0.34 98 1008.2
20260501224410 59 15 3.5 5.2 0.00 0.34 0.34 98 1007.7
20260501223906 59 26 5.2 7.0 0.00 0.34 0.34 98 1007.2
20260501223403 59 58 7.8 8.7 0.00 0.34 0.34 98 1006.9
20260501222858 59 88 5.2 7.0 0.00 0.34 0.34 98 1007.2
20260501222356 59 72 4.3 5.2 0.00 0.34 0.34 98 1007.3
20260501221852 60 74 3.5 4.3 0.00 0.34 0.34 98 1007.6
20260501221349 60 41 4.3 7.0 0.00 0.34 0.34 98 1007.8
20260501220848 60 50 1.7 2.6 0.00 0.34 0.34 98 1008.1
20260501220345 60 74 2.6 4.3 0.00 0.34 0.34 98 1008.8
20260501215841 60 16 1.7 1.7 0.00 0.34 0.34 98 1009.1
20260501215337 60 53 4.3 7.0 0.00 0.34 0.34 98 1009.0
20260501214833 60 346 2.6 2.6 0.00 0.34 0.34 98 1009.0
20260501214328 60 8 4.3 5.2 0.00 0.34 0.34 98 1009.1
20260501213824 60 358 1.7 1.7 0.00 0.34 0.34 98 1008.9
20260501213321 60 338 1.7 2.6 0.00 0.34 0.34 98 1008.8
20260501212817 60 333 3.5 4.3 0.00 0.34 0.34 98 1008.8
20260501212314 60 340 1.7 2.6 0.00 0.34 0.34 98 1008.8
20260501211811 60 347 4.3 5.2 0.00 0.34 0.34 98 1008.2
20260501211308 60 31 6.1 7.8 0.00 0.34 0.34 98 1007.9
20260501210805 60 39 0.9 1.7 0.00 0.34 0.34 98 1007.5
20260501210302 60 19 3.5 4.3 0.00 0.34 0.34 98 1006.9
20260501205758 60 165 2.6 4.3 0.00 0.34 0.34 98 1007.1
20260501205255 60 34 1.7 1.7 0.00 0.34 0.34 98 1007.9
20260501204752 60 48 1.7 1.7 0.00 0.34 0.34 98 1008.0
20260501204248 60 49 2.6 4.3 0.00 0.34 0.34 98 1007.8
20260501203745 61 345 4.3 5.2 0.00 0.34 0.34 98 1007.8
20260501203242 61 82 2.6 2.6 0.00 0.34 0.34 98 1006.9
20260501202739 61 8 1.7 1.7 0.00 0.34 0.34 98 1007.2
20260501202236 61 310 3.5 6.1 0.00 0.34 0.34 98 1007.1
20260501201733 61 39 4.3 6.1 0.00 0.34 0.34 98 1006.6
20260501201230 61 349 5.2 6.1 0.00 0.34 0.34 98 1007.6
20260501200726 61 28 2.6 2.6 0.00 0.34 0.34 98 1007.5
20260501200223 62 318 3.5 5.2 0.00 0.34 0.34 98 1007.9
20260501195721 62 342 4.3 5.2 0.00 0.34 0.34 98 1007.9
20260501195217 62 326 6.1 7.8 0.00 0.34 0.34 98 1007.4
20260501194713 62 332 1.7 2.6 0.00 0.34 0.34 98 1007.5
20260501194208 62 56 1.7 2.6 0.00 0.34 0.34 98 1007.3
20260501193705 62 327 2.6 4.3 0.00 0.34 0.34 98 1007.3
20260501193204 62 62 0.9 1.7 0.00 0.34 0.34 98 1007.1
20260501192701 62 331 2.6 4.3 0.00 0.34 0.34 98 1006.9
20260501192158 62 40 0.9 0.9 0.00 0.34 0.34 98 1007.1
20260501191655 62 45 1.7 1.7 0.00 0.34 0.34 98 1007.1
20260501191153 62 111 1.7 1.7 0.00 0.34 0.34 98 1007.2
20260501190649 62 44 0.9 0.9 0.00 0.34 0.34 98 1006.8
20260501190144 62 57 0.9 0.9 0.00 0.34 0.34 98 1006.6
20260501185640 62 73 2.6 2.6 0.00 0.34 0.34 98 1006.5
20260501185136 62 58 0.9 0.9 0.00 0.34 0.34 98 1006.7
20260501184633 62 25 2.6 4.3 0.00 0.34 0.34 98 1006.9
20260501184127 62 65 1.7 1.7 0.00 0.34 0.34 98 1007.3
20260501183624 62 118 1.7 1.7 0.00 0.34 0.34 98 1007.5
20260501183121 62 43 1.7 1.7 0.00 0.34 0.34 98 1006.7
20260501182617 62 322 2.6 4.3 0.00 0.34 0.34 98 1006.0
20260501182114 62 74 4.3 6.1 0.00 0.34 0.34 98 1004.8
20260501181611 62 82 5.2 7.0 0.00 0.34 0.34 98 1005.0
20260501181108 62 108 5.2 6.1 0.00 0.34 0.34 98 1005.5
20260501180607 62 127 2.6 2.6 0.00 0.34 0.34 98 1005.4
20260501175559 62 20 2.6 4.3 0.00 0.34 0.34 98 1006.9
20260501175056 62 62 2.6 4.3 0.00 0.34 0.34 98 1007.0
20260501174553 62 11 3.5 5.2 0.00 0.34 0.34 98 1007.2
20260501174050 62 22 2.6 2.6 0.00 0.34 0.34 98 1007.5
20260501173547 62 77 2.6 5.2 0.00 0.34 0.34 98 1007.9
20260501173044 62 21 2.6 2.6 0.00 0.34 0.34 98 1008.4
20260501172539 62 7 2.6 6.1 0.00 0.34 0.34 98 1008.0
20260501172035 62 301 4.3 5.2 0.00 0.34 0.34 98 1008.2
20260501171532 62 342 0.9 1.7 0.00 0.34 0.34 98 1008.0
20260501171028 62 69 1.7 2.6 0.00 0.34 0.34 98 1008.1
20260501170525 61 36 2.6 2.6 0.00 0.34 0.34 98 1008.0
20260501170022 61 355 2.6 2.6 0.00 0.34 0.34 98 1008.4
20260501165520 62 27 0.9 1.7 0.00 0.34 0.34 98 1008.5
20260501165018 62 53 0.0 0.9 0.00 0.34 0.34 98 1008.7
20260501164515 62 59 1.7 1.7 0.00 0.34 0.34 98 1009.1
20260501164012 62 41 1.7 4.3 0.00 0.34 0.34 98 1009.4
20260501163508 62 346 0.0 0.9 0.00 0.34 0.34 98 1009.6
20260501163005 62 56 0.9 1.7 0.00 0.34 0.34 98 1009.7
20260501162501 62 56 0.9 1.7 0.00 0.34 0.34 98 1010.2
20260501161958 62 349 4.3 6.1 0.00 0.34 0.34 98 1010.0
20260501161455 62 351 2.6 2.6 0.00 0.34 0.34 98 1009.8
20260501160952 62 324 3.5 5.2 0.00 0.34 0.34 98 1009.7
20260501160449 62 325 5.2 7.8 0.00 0.34 0.34 98 1010.0
20260501155946 62 347 4.3 6.1 0.00 0.34 0.34 98 1009.9
20260501155443 62 332 5.2 6.1 0.00 0.34 0.34 98 1010.1
20260501154939 62 332 4.3 5.2 0.00 0.34 0.34 98 1010.2
20260501154437 62 327 2.6 4.3 0.00 0.34 0.34 98 1010.1